This is the latest recevied weather packets stored in our database for station/object KE5YIM-13. If no packets are shown the sender has not sent any weather packets the latest 10 day(s).
| Time | Temp. | Humidity | Pressure | Rain* | Wind** | Luminosity | Snow |
|---|---|---|---|---|---|---|---|
| 1777784886 | 8.33° C | 56% | 1011.5 hPa | 0 mm | - | 0 W/m² | - |
| 1777784582 | 8.89° C | 57% | 1011.7 hPa | 0 mm | - | 0 W/m² | - |
| 1777784280 | 8.89° C | 58% | 1011.8 hPa | 0 mm | - | 0 W/m² | - |
| 1777783978 | 8.33° C | 58% | 1011.7 hPa | 0 mm | - | 0 W/m² | - |
| 1777783673 | 8.33° C | 61% | 1012 hPa | 0 mm | - | 0 W/m² | - |
| 1777783371 | 8.89° C | 60% | 1012 hPa | 0 mm | - | 0 W/m² | - |
| 1777783068 | 8.89° C | 59% | 1012.1 hPa | 0 mm | - | 0 W/m² | - |
| 1777782765 | 8.33° C | 61% | 1012 hPa | 0 mm | - | 0 W/m² | - |
| 1777782461 | 8.33° C | 61% | 1012.2 hPa | 0 mm | - | 0 W/m² | - |
| 1777782158 | 8.89° C | 62% | 1012 hPa | 0 mm | - | 0 W/m² | - |
| 1777781853 | 8.89° C | 59% | 1012.2 hPa | 0 mm | - | 0 W/m² | - |
| 1777781552 | 8.89° C | 58% | 1012.2 hPa | 0 mm | - | 0 W/m² | - |
| 1777781249 | 8.89° C | 57% | 1012 hPa | 0 mm | - | 0 W/m² | - |
| 1777780947 | 8.89° C | 55% | 1012.1 hPa | 0 mm | - | 0 W/m² | - |
| 1777780644 | 8.89° C | 57% | 1011.9 hPa | 0 mm | - | 0 W/m² | - |
| 1777780341 | 9.44° C | 56% | 1012 hPa | 0 mm | - | 0 W/m² | - |
| 1777780038 | 9.44° C | 54% | 1012.1 hPa | 0 mm | - | 0 W/m² | - |
| 1777779735 | 9.44° C | 55% | 1012 hPa | 0 mm | - | 0 W/m² | - |
| 1777779432 | 9.44° C | 54% | 1012 hPa | 0 mm | - | 0 W/m² | - |
| 1777779129 | 10° C | 53% | 1012 hPa | 0 mm | - | 0 W/m² | - |
| 1777778828 | 10° C | 52% | 1012 hPa | 0 mm | - | 0 W/m² | - |
| 1777778526 | 9.44° C | 53% | 1012 hPa | 0 mm | - | 0 W/m² | - |
| 1777778222 | 9.44° C | 53% | 1012 hPa | 0 mm | - | 0 W/m² | - |
| 1777777921 | 10° C | 52% | 1011.9 hPa | 0 mm | - | 0 W/m² | - |
| 1777777616 | 10° C | 52% | 1012 hPa | 0 mm | - | 0 W/m² | - |
* Rain latest hour (hover to see other rain measurements)
** Current wind speed in m/s (hover to see current wind gust speed)